Tracking 19817 objects as of 18-Aug-2019
HD Live streaming from Space Station
objects crossing your sky now

SL-16 DEB

Track SL-16 DEB now!
10-day predictions


NORAD ID: 39900
Int'l Code: 1993-016CA
Perigee: 701.7 km
Apogee: 818.3 km
Inclination: 70.9 °
Period: 99.9 minutes
Semi major axis: 7130 km
RCS: 0.0139 m2 (small)
Launch date: March 26, 1993
Source: Commonwealth of Independent States (former USSR) (CIS)
Launch site: TYURATAM MISSILE AND SPACE COMPLEX (TTMTR)

Note: This is SATELLITE DEBRIS
aabbcc
Your satellite tracking list
Your tracking list is empty




NASA's NSSDC Master Catalog

Two Line Element Set (TLE):
1 39900U 93016CA  19227.19102806 +.00001666 +00000-0 +50611-3 0  9993
2 39900 070.9358 160.2958 0081753 144.8602 215.7966 14.41708274272369
Source of the keplerian elements: AFSPC